AI9F Weather Reports


time (UTC)temp
F
wind
direction
speed
knots
gust
knots
rain 1hr
in
rain 24hr
in
rain mn
in
humidity
%
barometer
mb
20260906113841 73 80 0.9 0.9 0.00 0.00 0.00 93 1014.8
20260906113340 73 104 0.0 0.0 0.00 0.00 0.00 93 1014.8
20260906112836 73 105 0.0 0.0 0.00 0.00 0.00 93 1014.8
20260906112332 73 97 0.9 0.9 0.00 0.00 0.00 93 1014.8
20260906111832 73 88 1.7 1.7 0.00 0.00 0.00 93 1014.6
20260906111331 73 83 0.0 0.0 0.00 0.00 0.00 93 1014.5
20260906110827 73 83 0.0 0.0 0.00 0.00 0.00 93 1014.3
20260906110323 73 83 0.9 0.9 0.00 0.00 0.00 93 1014.6
20260906105821 73 84 0.0 0.0 0.00 0.00 0.00 93 1014.3
20260906105317 73 83 0.0 0.0 0.00 0.00 0.00 93 1014.2
20260906104813 73 106 0.9 0.9 0.00 0.00 0.00 93 1014.2
20260906104312 73 84 0.0 0.0 0.00 0.00 0.00 94 1014.3
20260906103810 73 87 0.0 0.0 0.00 0.00 0.00 94 1014.4
20260906103309 72 63 1.7 1.7 0.00 0.00 0.00 94 1014.3
20260906102805 72 107 0.9 0.9 0.00 0.00 0.00 94 1014.3
20260906102306 72 69 0.9 1.7 0.00 0.00 0.00 94 1014.0
20260906101800 72 101 0.0 0.0 0.00 0.00 0.00 94 1014.0
20260906101300 72 64 0.0 0.9 0.00 0.00 0.00 94 1014.2
20260906100755 72 92 0.0 0.0 0.00 0.00 0.00 94 1014.0
20260906100254 72 78 0.9 0.9 0.00 0.00 0.00 94 1014.0
20260906095750 72 67 1.7 1.7 0.00 0.00 0.00 94 1013.9
20260906095245 72 105 0.0 0.9 0.00 0.00 0.00 94 1014.0
20260906094744 72 97 0.0 0.9 0.00 0.00 0.00 94 1013.9
20260906094239 71 101 0.9 1.7 0.00 0.00 0.00 94 1013.9
20260906093736 71 108 0.0 0.9 0.00 0.00 0.00 94 1013.7
20260906093231 71 96 0.0 0.0 0.00 0.00 0.00 94 1013.6
20260906092726 71 95 0.0 0.0 0.00 0.00 0.00 94 1013.7
20260906092226 71 141 0.9 0.9 0.00 0.00 0.00 94 1013.6
20260906091722 71 99 0.0 0.0 0.00 0.00 0.00 93 1013.7
20260906091218 72 105 0.0 0.0 0.00 0.00 0.00 93 1013.6
20260906090715 72 130 0.0 0.9 0.00 0.00 0.00 93 1013.5
20260906090214 72 113 0.0 0.0 0.00 0.00 0.00 93 1013.8
20260906085713 72 126 0.0 0.0 0.00 0.00 0.00 93 1013.6
20260906085212 72 81 0.9 0.9 0.00 0.00 0.00 92 1013.5
20260906084707 72 153 0.9 0.9 0.00 0.00 0.00 92 1013.6
20260906084207 73 91 0.0 0.0 0.00 0.00 0.00 92 1013.4
20260906083701 73 109 0.0 0.0 0.00 0.00 0.00 92 1013.6
20260906083157 73 128 0.9 1.7 0.00 0.00 0.00 92 1013.7
20260906082652 73 82 0.9 1.7 0.00 0.00 0.00 92 1013.6
20260906082147 73 89 0.0 0.0 0.00 0.00 0.00 92 1013.5
20260906081643 73 68 0.9 1.7 0.00 0.00 0.00 91 1013.7
20260906081138 73 80 0.0 0.0 0.00 0.00 0.00 91 1013.7
20260906080635 73 80 0.0 0.0 0.00 0.00 0.00 91 1013.7
20260906080131 74 80 0.0 0.9 0.00 0.00 0.00 91 1013.7
20260906075630 74 80 0.0 0.0 0.00 0.00 0.00 91 1013.6
20260906075125 74 83 0.0 0.0 0.00 0.00 0.00 90 1013.5
20260906074620 74 83 0.0 0.0 0.00 0.00 0.00 90 1013.6
20260906074119 74 78 0.9 0.9 0.00 0.00 0.00 90 1013.5
20260906073614 74 78 0.0 0.9 0.00 0.00 0.00 90 1013.5
20260906073109 74 78 0.0 0.0 0.00 0.00 0.00 90 1013.5
20260906072604 75 78 0.0 0.0 0.00 0.00 0.00 89 1013.6
20260906072101 75 78 0.0 0.0 0.00 0.00 0.00 89 1013.5
20260906071557 75 78 0.0 0.0 0.00 0.00 0.00 89 1013.5
20260906071057 75 78 0.0 0.0 0.00 0.00 0.00 90 1013.5
20260906070554 75 78 0.0 0.0 0.00 0.00 0.00 90 1013.6
20260906070049 75 78 0.0 0.0 0.00 0.00 0.00 90 1013.3
20260906065548 75 78 0.0 0.0 0.00 0.00 0.00 90 1013.5
20260906065044 75 78 0.0 0.0 0.00 0.00 0.00 89 1013.5
20260906064540 75 78 0.0 0.0 0.00 0.00 0.00 89 1013.5
20260906064035 76 78 0.9 0.9 0.00 0.00 0.00 87 1013.4
20260906063530 76 78 0.0 0.9 0.00 0.00 0.00 87 1013.7
20260906063026 76 78 0.0 0.0 0.00 0.00 0.00 85 1013.7
20260906062521 76 78 0.0 0.0 0.00 0.00 0.00 85 1013.7
20260906062015 77 78 0.0 0.0 0.00 0.00 0.00 84 1013.8
20260906061511 77 78 0.0 0.0 0.00 0.00 0.00 83 1013.8
20260906061010 77 78 0.0 0.0 0.00 0.00 0.00 82 1013.7
20260906060508 78 78 0.0 0.0 0.00 0.00 0.00 81 1013.8
20260906060004 78 78 0.0 0.0 0.00 0.00 0.00 81 1014.0
20260906055500 78 78 0.9 0.9 0.00 0.00 0.00 81 1013.9
20260906054955 78 79 0.0 0.0 0.00 0.00 0.00 80 1013.6
20260906054454 78 79 0.9 0.9 0.00 0.00 0.00 80 1013.7
20260906053950 78 79 0.9 0.9 0.00 0.00 0.00 80 1014.0
20260906053446 78 80 0.0 0.0 0.00 0.00 0.00 80 1013.9
20260906052942 79 83 0.0 0.0 0.00 0.00 0.00 79 1013.9
20260906052438 79 82 0.9 0.9 0.00 0.00 0.00 79 1013.9
20260906051934 79 83 0.0 0.0 0.00 0.00 0.00 78 1013.8
20260906051429 80 83 0.0 0.0 0.00 0.00 0.00 77 1013.7
20260906050925 80 83 0.0 0.0 0.00 0.00 0.00 76 1013.7
20260906050425 80 83 0.0 0.0 0.00 0.00 0.00 76 1013.5
20260906045924 80 83 0.9 0.9 0.00 0.00 0.00 76 1013.7
20260906045423 81 82 0.9 0.9 0.00 0.00 0.00 75 1013.7
20260906044920 81 92 0.0 0.0 0.00 0.00 0.00 75 1013.7
20260906044420 81 92 0.9 0.9 0.00 0.00 0.00 74 1013.5
20260906043915 81 79 1.7 1.7 0.00 0.00 0.00 75 1013.5
20260906043411 82 114 0.9 0.9 0.00 0.00 0.00 75 1013.4
20260906042906 82 103 0.0 0.0 0.00 0.00 0.00 76 1013.3
20260906042406 82 93 0.9 0.9 0.00 0.00 0.00 76 1013.4
20260906041901 82 96 0.9 0.9 0.00 0.00 0.00 77 1013.4
20260906041357 82 100 0.0 0.9 0.00 0.00 0.00 78 1013.4
20260906040856 82 99 0.9 0.9 0.00 0.00 0.00 79 1013.5
20260906040352 82 81 0.9 0.9 0.00 0.00 0.00 79 1013.2
20260906035847 82 97 0.9 0.9 0.00 0.00 0.00 79 1013.1
20260906035342 82 96 1.7 1.7 0.00 0.00 0.00 79 1013.0
20260906034838 83 109 0.9 0.9 0.00 0.00 0.00 79 1013.0
20260906034333 83 103 0.9 1.7 0.00 0.00 0.00 78 1013.1
20260906033829 83 134 0.9 0.0 0.00 0.00 0.00 78 1013.0
20260906033327 83 117 0.9 0.9 0.00 0.00 0.00 78 1013.0
20260906032824 83 95 0.0 0.0 0.00 0.00 0.00 78 1012.6
20260906032320 82 91 0.0 0.0 0.00 0.00 0.00 78 1012.7
20260906031815 82 94 0.0 0.0 0.00 0.00 0.00 79 1012.6
20260906031310 82 95 0.0 0.0 0.00 0.00 0.00 79 1012.4
20260906030810 82 95 0.0 0.0 0.00 0.00 0.00 78 1012.3
20260906030305 82 95 0.0 0.0 0.00 0.00 0.00 78 1012.2
20260906025805 82 95 0.0 0.0 0.00 0.00 0.00 77 1012.2
20260906025259 83 95 0.0 0.0 0.00 0.00 0.00 76 1012.2
20260906024758 83 95 0.0 0.0 0.00 0.00 0.00 76 1012.1
20260906024257 84 95 0.0 0.0 0.00 0.00 0.00 75 1012.0
20260906023753 84 95 0.0 0.0 0.00 0.00 0.00 74 1012.1
20260906023248 84 96 0.0 0.0 0.00 0.00 0.00 74 1012.1
20260906022744 84 96 0.0 0.0 0.00 0.00 0.00 75 1012.0
20260906022239 83 96 0.9 0.9 0.00 0.00 0.00 75 1012.0
20260906021735 83 98 0.0 0.0 0.00 0.00 0.00 76 1011.9
20260906021234 83 101 0.0 0.0 0.00 0.00 0.00 75 1012.0
20260906020729 83 101 0.0 0.0 0.00 0.00 0.00 74 1011.8
20260906020223 83 101 0.0 0.0 0.00 0.00 0.00 73 1011.8
20260906015723 84 101 0.0 0.0 0.00 0.00 0.00 73 1011.6
20260906015221 84 101 0.0 0.0 0.00 0.00 0.00 72 1011.7
20260906014716 84 101 0.0 0.0 0.00 0.00 0.00 72 1011.6
20260906014213 84 101 0.9 0.9 0.00 0.00 0.00 71 1011.8
20260906013708 84 101 0.0 0.0 0.00 0.00 0.00 71 1011.8
20260906013208 84 101 0.0 0.0 0.00 0.00 0.00 71 1011.7
20260906012704 84 101 0.0 0.0 0.00 0.00 0.00 71 1011.5
20260906012204 84 101 0.0 0.0 0.00 0.00 0.00 71 1011.5
20260906011700 84 101 0.9 0.9 0.00 0.00 0.00 70 1011.6
20260906011159 85 101 0.0 0.0 0.00 0.00 0.00 70 1011.1
20260906010655 85 101 0.0 0.0 0.00 0.00 0.00 69 1011.3
20260906010152 85 101 0.0 0.0 0.00 0.00 0.00 68 1011.3
20260906005651 86 101 0.0 0.0 0.00 0.00 0.00 68 1011.1
20260906005150 86 101 0.0 0.0 0.00 0.00 0.00 67 1011.3
20260906004649 86 101 0.0 0.0 0.00 0.00 0.00 67 1011.2
20260906004144 86 101 0.0 0.0 0.00 0.00 0.00 66 1011.3
20260906003640 86 101 0.0 0.0 0.00 0.00 0.00 65 1011.3
20260906003135 87 101 0.0 0.0 0.00 0.00 0.00 65 1011.2
20260906002630 87 101 0.0 0.0 0.00 0.00 0.00 64 1011.3
20260906002125 88 101 0.0 0.0 0.00 0.00 0.00 63 1011.4
20260906001621 89 101 0.0 0.0 0.00 0.00 0.00 62 1011.3
20260906001120 89 101 0.0 0.0 0.00 0.00 0.00 61 1011.2
20260906000616 89 101 0.0 0.0 0.00 0.00 0.00 60 1011.4
20260906000111 90 101 0.0 0.0 0.00 0.00 0.00 59 1011.5
20260905235610 90 101 0.0 0.0 0.00 0.00 0.00 58 1011.1
20260905235105 91 101 0.0 0.0 0.00 0.00 0.00 57 1011.2
20260905234601 92 101 0.0 0.0 0.00 0.00 0.00 56 1011.2
20260905234056 93 101 0.0 0.0 0.00 0.00 0.00 54 1011.2
20260905233555 93 101 0.0 0.0 0.00 0.00 0.00 54 1011.1
20260905233050 94 101 0.0 0.0 0.00 0.00 0.00 52 1011.3
20260905232546 94 101 0.0 0.0 0.00 0.00 0.00 52 1010.9
20260905232041 95 101 0.0 0.0 0.00 0.00 0.00 49 1011.1
20260905231536 95 101 0.0 0.0 0.00 0.00 0.00 52 1011.0
20260905231033 96 108 0.0 0.0 0.00 0.00 0.00 49 1010.8
20260905230532 96 116 0.0 0.0 0.00 0.00 0.00 47 1010.9
20260905230031 97 106 0.9 0.9 0.00 0.00 0.00 45 1011.1
20260905225526 97 115 0.9 0.9 0.00 0.00 0.00 45 1011.1
20260905225021 96 126 0.0 0.0 0.00 0.00 0.00 46 1011.0
20260905224521 96 135 0.0 0.0 0.00 0.00 0.00 45 1011.1
20260905224020 96 92 1.7 1.7 0.00 0.00 0.00 43 1011.1
20260905223518 97 149 0.9 0.9 0.00 0.00 0.00 44 1011.0
20260905223014 97 98 0.9 0.9 0.00 0.00 0.00 44 1011.1
20260905222513 97 141 0.9 0.9 0.00 0.00 0.00 43 1011.1
20260905222009 98 106 0.9 0.9 0.00 0.00 0.00 43 1011.1
20260905221505 98 110 0.9 0.9 0.00 0.00 0.00 41 1011.0
20260905221001 99 154 0.9 0.9 0.00 0.00 0.00 42 1010.9
20260905220457 99 159 0.9 0.9 0.00 0.00 0.00 42 1010.8
20260905215956 99 147 0.9 0.9 0.00 0.00 0.00 42 1011.0
20260905215452 99 162 1.7 0.9 0.00 0.00 0.00 42 1010.8
20260905214948 98 125 0.0 0.0 0.00 0.00 0.00 42 1011.0
20260905214444 98 152 0.9 1.7 0.00 0.00 0.00 42 1010.9
20260905213943 97 146 0.9 0.9 0.00 0.00 0.00 44 1011.0
20260905213440 97 158 0.9 0.9 0.00 0.00 0.00 44 1011.0
20260905212935 97 182 1.7 1.7 0.00 0.00 0.00 44 1011.2
20260905212430 97 163 1.7 1.7 0.00 0.00 0.00 43 1011.1
20260905211928 97 117 0.9 0.9 0.00 0.00 0.00 42 1010.9
20260905211425 96 150 0.9 0.9 0.00 0.00 0.00 46 1011.0
20260905210921 95 110 0.9 0.9 0.00 0.00 0.00 49 1011.1
20260905210421 94 143 0.9 0.9 0.00 0.00 0.00 49 1011.1
20260905205920 92 164 0.9 0.9 0.00 0.00 0.00 53 1011.2
20260905205415 92 187 1.7 1.7 0.00 0.00 0.00 54 1011.4
20260905204914 91 143 0.9 0.9 0.00 0.00 0.00 53 1011.3
20260905204410 91 175 0.9 0.9 0.00 0.00 0.00 52 1011.5
20260905203909 92 137 0.9 0.0 0.00 0.00 0.00 52 1011.4
20260905203404 92 128 0.9 0.9 0.00 0.00 0.00 51 1011.5
20260905202900 93 180 1.7 1.7 0.00 0.00 0.00 49 1011.6
20260905202355 94 155 0.9 1.7 0.00 0.00 0.00 49 1011.7
20260905201851 95 112 0.0 0.0 0.00 0.00 0.00 47 1011.7
20260905201346 96 155 1.7 1.7 0.00 0.00 0.00 46 1011.7
20260905200845 97 104 3.5 3.5 0.00 0.00 0.00 45 1011.7
20260905200342 98 189 1.7 1.7 0.00 0.00 0.00 43 1011.5
20260905195840 99 172 2.6 3.5 0.00 0.00 0.00 42 1011.7
20260905195335 100 185 1.7 2.6 0.00 0.00 0.00 40 1011.4
20260905194831 100 253 3.5 5.2 0.00 0.00 0.00 39 1011.7
20260905194330 102 173 1.7 1.7 0.00 0.00 0.00 37 1011.7
20260905193829 103 119 0.9 0.9 0.00 0.00 0.00 36 1011.7
20260905193324 102 139 1.7 1.7 0.00 0.00 0.00 40 1011.5
20260905192820 103 166 0.9 0.9 0.00 0.00 0.00 37 1011.6
20260905192316 103 324 4.3 7.0 0.00 0.00 0.00 36 1011.6
20260905191815 100 137 1.7 1.7 0.00 0.00 0.00 40 1011.7
20260905191314 99 241 3.5 5.2 0.00 0.00 0.00 39 1011.9
20260905190812 99 173 1.7 1.7 0.00 0.00 0.00 40 1011.7
20260905190307 101 195 1.7 1.7 0.00 0.00 0.00 38 1011.6
20260905185806 102 144 0.9 0.9 0.00 0.00 0.00 37 1011.9
20260905185305 104 229 4.3 5.2 0.00 0.00 0.00 36 1012.0
20260905184800 104 150 0.9 0.9 0.00 0.00 0.00 36 1012.0
20260905184259 102 101 0.9 1.7 0.00 0.00 0.00 36 1012.1
20260905183758 102 256 3.5 6.1 0.00 0.00 0.00 38 1012.2
20260905183254 102 159 0.9 0.9 0.00 0.00 0.00 37 1012.3
20260905182754 102 172 1.7 1.7 0.00 0.00 0.00 40 1012.4
20260905182253 101 115 0.9 0.9 0.00 0.00 0.00 39 1012.4
20260905181749 102 217 2.6 2.6 0.00 0.00 0.00 39 1012.6
20260905181249 102 221 4.3 6.1 0.00 0.00 0.00 38 1012.5
20260905180748 101 145 1.7 1.7 0.00 0.00 0.00 40 1012.7
20260905180243 101 256 2.6 2.6 0.00 0.00 0.00 40 1012.5
20260905175738 100 124 0.0 0.0 0.00 0.00 0.00 38 1012.7
20260905175233 101 214 4.3 6.1 0.00 0.00 0.00 38 1012.5
20260905174728 102 189 1.7 2.6 0.00 0.00 0.00 39 1012.4
20260905174224 101 114 0.0 0.0 0.00 0.00 0.00 44 1012.6
20260905173720 100 154 0.9 0.9 0.00 0.00 0.00 42 1012.8
20260905173216 101 254 4.3 6.1 0.00 0.00 0.00 39 1012.9
20260905172715 101 144 0.9 0.9 0.00 0.00 0.00 41 1013.0
20260905172215 100 119 0.9 1.7 0.00 0.00 0.00 42 1013.1
20260905171710 101 190 2.6 2.6 0.00 0.00 0.00 40 1012.9
20260905171206 100 193 3.5 5.2 0.00 0.00 0.00 41 1013.2
20260905170704 100 176 2.6 2.6 0.00 0.00 0.00 40 1013.1
20260905170204 99 156 0.9 0.9 0.00 0.00 0.00 40 1013.3
20260905165703 100 159 0.9 0.9 0.00 0.00 0.00 42 1013.2
20260905165159 99 137 0.0 0.0 0.00 0.00 0.00 43 1013.2
20260905164653 99 177 1.7 1.7 0.00 0.00 0.00 42 1013.4
20260905164153 100 169 1.7 1.7 0.00 0.00 0.00 42 1013.4
20260905163649 98 135 0.9 1.7 0.00 0.00 0.00 42 1013.2
20260905163145 98 153 0.9 0.9 0.00 0.00 0.00 42 1013.3
20260905162641 99 164 1.7 1.7 0.00 0.00 0.00 42 1013.3
20260905162141 98 166 1.7 1.7 0.00 0.00 0.00 45 1013.7
20260905161641 98 159 0.9 1.7 0.00 0.00 0.00 47 1013.6
20260905161139 97 163 0.9 0.9 0.00 0.00 0.00 46 1014.0
20260905160633 97 203 4.3 5.2 0.00 0.00 0.00 44 1013.7
20260905160133 96 152 0.9 0.9 0.00 0.00 0.00 45 1013.6
20260905155633 96 141 0.0 0.0 0.00 0.00 0.00 46 1013.6
20260905155131 96 209 0.9 1.7 0.00 0.00 0.00 48 1013.5
20260905154626 96 190 3.5 3.5 0.00 0.00 0.00 47 1013.7
20260905154121 95 140 0.9 0.9 0.00 0.00 0.00 49 1014.1
20260905153617 95 179 0.9 1.7 0.00 0.00 0.00 51 1013.9
20260905153112 95 145 0.9 0.9 0.00 0.00 0.00 48 1013.9
20260905152607 94 343 1.7 1.7 0.00 0.00 0.00 47 1013.9
20260905152102 94 167 0.9 1.7 0.00 0.00 0.00 48 1013.9
20260905151557 94 178 0.9 0.9 0.00 0.00 0.00 50 1013.7
20260905151052 93 145 0.9 0.9 0.00 0.00 0.00 53 1013.8
20260905150547 92 184 1.7 1.7 0.00 0.00 0.00 54 1013.8
20260905150045 92 187 0.9 0.9 0.00 0.00 0.00 56 1013.7
20260905145539 91 158 0.9 0.9 0.00 0.00 0.00 56 1013.7
20260905145038 91 175 1.7 1.7 0.00 0.00 0.00 62 1013.7
20260905144533 91 148 0.9 0.9 0.00 0.00 0.00 60 1013.9
20260905144032 90 185 0.9 0.9 0.00 0.00 0.00 63 1013.7
20260905143531 89 184 0.0 0.0 0.00 0.00 0.00 60 1013.8
20260905143027 89 165 0.9 0.9 0.00 0.00 0.00 62 1013.9
20260905142525 89 130 0.9 0.9 0.00 0.00 0.00 63 1013.9
20260905142021 88 162 0.9 0.9 0.00 0.00 0.00 65 1014.0
20260905141515 88 161 0.9 0.9 0.00 0.00 0.00 67 1013.8
20260905141012 87 161 0.9 0.9 0.00 0.00 0.00 67 1014.0
20260905140506 87 162 0.9 0.9 0.00 0.00 0.00 67 1014.0
20260905140005 86 161 0.9 0.9 0.00 0.00 0.00 67 1014.2
20260905135501 86 161 0.9 0.9 0.00 0.00 0.00 68 1014.1
20260905134956 86 161 0.0 0.0 0.00 0.00 0.00 69 1014.1
20260905134455 85 161 0.0 0.0 0.00 0.00 0.00 71 1014.2
20260905133955 85 161 0.9 0.9 0.00 0.00 0.00 72 1014.3
20260905133450 85 161 0.0 0.0 0.00 0.00 0.00 71 1014.1
20260905132949 84 161 0.9 0.9 0.00 0.00 0.00 71 1014.1
20260905132444 84 161 0.9 0.9 0.00 0.00 0.00 72 1014.1
20260905131939 83 161 0.9 0.9 0.00 0.00 0.00 74 1014.3
20260905131436 82 161 0.0 0.0 0.00 0.00 0.00 75 1014.4
20260905130930 82 161 0.0 0.0 0.00 0.00 0.00 75 1014.1
20260905130430 82 161 0.0 0.0 0.00 0.00 0.00 76 1014.3
20260905125929 81 161 0.0 0.0 0.00 0.00 0.00 78 1014.4
20260905125424 79 161 0.0 0.0 0.00 0.00 0.00 82 1014.1
20260905124920 78 161 0.0 0.0 0.00 0.00 0.00 83 1014.1
20260905124416 77 161 0.0 0.0 0.00 0.00 0.00 85 1014.1
20260905123916 76 161 0.0 0.0 0.00 0.00 0.00 87 1014.1
20260905123413 76 161 0.0 0.0 0.00 0.00 0.00 88 1014.1
20260905122908 76 161 0.0 0.0 0.00 0.00 0.00 89 1013.9
20260905122407 75 161 0.0 0.0 0.00 0.00 0.00 89 1013.8
20260905121903 75 161 0.0 0.0 0.00 0.00 0.00 89 1014.0
20260905121359 75 161 0.0 0.0 0.00 0.00 0.00 89 1013.9
20260905120858 75 161 0.0 0.0 0.00 0.00 0.00 89 1013.9
20260905120358 75 160 0.9 0.0 0.00 0.00 0.00 89 1013.8
20260905115853 75 160 0.0 0.0 0.00 0.00 0.00 89 1013.8
20260905115352 74 160 0.0 0.0 0.00 0.00 0.00 89 1013.8
20260905114847 74 160 0.0 0.0 0.00 0.00 0.00 89 1013.6
20260905114346 74 160 0.0 0.0 0.00 0.00 0.00 90 1013.7